Location: Muenchen
(48.1800°N, 11.5800°E)
Time: 19:54:58
(UTC+02:00)

ISS - All Passes

Search period start: 31 August 2015 00:00
Search period end: 10 September 2015 00:00
Orbit: 400 x 402 km, 51.6° (Epoch: 31 August)

Date Brightness Start Highest point End Pass type
(mag) Time Alt. Az. Time Alt. Az. Time Alt. Az.
31 Aug - 09:49:31 10° SSW 09:52:08 23° SE 09:54:48 10° E daylight
31 Aug - 11:25:02 10° WSW 11:28:18 79° NNW 11:31:34 10° ENE daylight
31 Aug - 13:01:49 10° WNW 13:04:58 43° N 13:08:06 10° ENE daylight
31 Aug - 14:38:23 10° WNW 14:41:39 72° NNE 14:44:54 10° ESE daylight
31 Aug - 16:15:04 10° W 16:17:52 26° SW 16:20:38 10° SSE daylight
01 Sep - 08:57:24 10° SSE 08:59:05 14° SE 09:00:50 10° ESE daylight
01 Sep - 10:31:48 10° WSW 10:35:03 70° SSE 10:38:18 10° ENE daylight
01 Sep - 12:08:25 10° W 12:11:35 46° N 12:14:45 10° ENE daylight
01 Sep - 13:45:07 10° WNW 13:48:20 54° NNE 13:51:32 10° E daylight
01 Sep - 15:21:36 10° WNW 15:24:43 43° SSW 15:27:49 10° SE daylight
02 Sep - 09:38:43 10° SW 09:41:49 42° SSE 09:44:56 10° ENE daylight
02 Sep - 11:14:59 10° W 11:18:13 54° NNW 11:21:26 10° ENE daylight
02 Sep - 12:51:47 10° WNW 12:54:57 45° N 12:58:07 10° E daylight
02 Sep - 14:28:14 10° WNW 14:31:30 71° SSW 14:34:44 10° ESE daylight
02 Sep - 16:05:40 10° WSW 16:07:28 14° SW 16:09:11 10° SSW daylight
03 Sep - 08:45:54 10° SSW 08:48:39 26° SE 08:51:26 10° E daylight
03 Sep - 10:21:36 10° WSW 10:24:51 73° NNW 10:28:07 10° ENE daylight
03 Sep - 11:58:23 10° WNW 12:01:32 43° N 12:04:40 10° ENE daylight
03 Sep - 13:34:56 10° WNW 13:38:12 78° NNE 13:41:27 10° ESE daylight
03 Sep - 15:11:41 10° W 15:14:21 23° SW 15:16:59 10° SSE daylight
04 Sep - 07:53:32 10° S 07:55:30 15° SE 07:57:33 10° E daylight
04 Sep - 09:28:15 10° WSW 09:31:31 77° SSE 09:34:47 10° ENE daylight
04 Sep - 11:04:56 10° W 11:08:05 44° N 11:11:15 10° ENE daylight
04 Sep - 12:41:35 10° WNW 12:44:50 57° NNE 12:48:03 10° E daylight
04 Sep - 14:18:06 10° WNW 14:21:10 38° SSW 14:24:12 10° SE daylight
05 Sep - 08:35:04 10° SW 08:38:13 48° SSE 08:41:23 10° ENE daylight
05 Sep - 10:11:27 10° W 10:14:38 52° NNW 10:17:51 10° ENE daylight
05 Sep - 11:48:12 10° WNW 11:51:23 47° N 11:54:33 10° E daylight
05 Sep - 13:24:39 10° WNW 13:27:54 63° SSW 13:31:07 10° SE daylight
05 Sep - 15:02:24 10° WSW 15:03:49 12° SW 15:05:08 10° SSW daylight
06 Sep - 07:42:07 10° SSW 07:44:58 29° SE 07:47:51 10° E daylight
06 Sep - 09:17:58 10° WSW 09:21:13 67° NNW 09:24:28 10° ENE daylight
06 Sep - 10:54:46 10° WNW 10:57:55 43° N 11:01:03 10° ENE daylight
06 Sep - 12:31:17 10° WNW 12:34:33 85° NNE 12:37:49 10° ESE daylight
06 Sep - 14:08:08 10° W 14:10:40 21° SW 14:13:09 10° S daylight
07 Sep - 06:49:33 10° S 06:51:46 17° SE 06:54:02 10° E daylight
07 Sep - 08:24:33 10° WSW 08:27:48 85° SSE 08:31:05 10° ENE daylight
07 Sep - 10:01:16 10° WNW 10:04:24 44° N 10:07:33 10° ENE daylight
07 Sep - 11:37:53 10° WNW 11:41:07 61° NNE 11:44:21 10° E daylight
07 Sep - 13:14:26 10° W 13:17:26 34° SW 13:20:25 10° SSE daylight
08 Sep - 07:31:15 10° SW 07:34:26 54° SSE 07:37:38 10° ENE daylight
08 Sep - 09:07:43 10° W 09:10:54 49° N 09:14:05 10° ENE daylight
08 Sep - 10:44:27 10° WNW 10:47:38 49° N 10:50:49 10° E daylight
08 Sep - 12:20:54 10° WNW 12:24:06 56° SSW 12:27:18 10° SE daylight
08 Sep - 13:59:11 10° WSW 13:59:58 11° SW 14:00:40 10° SSW daylight
09 Sep - 06:38:10 10° SSW 06:41:07 32° SE 06:44:05 10° E daylight
09 Sep - 08:14:10 10° W 08:17:24 63° NNW 08:20:39 10° ENE daylight
09 Sep - 09:50:58 10° WNW 09:54:06 43° N 09:57:15 10° ENE daylight
09 Sep - 11:27:26 10° WNW 11:30:43 88° SSW 11:33:58 10° ESE daylight
09 Sep - 13:04:25 10° W 13:06:46 18° SW 13:09:05 10° S daylight
